Weather History for Kiana, AK

Change the Weather History Date:

Tuesday, September 10, 2013

  Actual Average (PASK) Record (PASK)
Temperature  
Mean Temperature 48 °F -  
Max Temperature 51 °F 47 °F 62 °F (2010)
Min Temperature 44 °F 37 °F 35 °F (1996)
Degree Days  
Heating Degree Days 16    
Moisture  
Dew Point 47 °F    
Average Humidity 93    
Maximum Humidity 100    
Minimum Humidity 73    
Precipitation  
Precipitation 0.00 in - - ()
Sea Level Pressure  
Sea Level Pressure 29.68 in    
Wind  
Wind Speed 6 mph (ENE)    
Max Wind Speed 9 mph    
Max Gust Speed -    
Visibility 10 miles    
Events Rain    
Averages and records for this station are not official NWS values.
T = Trace of Precipitation, MM = Missing Value Source: NWS Daily Summary

Daily Weather History Graph

Daily Weather History Graph

Search for Another Location

Airport:

Trip Planner

Search our weather history database for the weather conditions in past years. The results will help you decide how hot, cold, wet, or windy it might be!

Date:

Astronomy

Sep. 10, 2013 Rise Set
Actual Time 7:45 AM AKDT 9:29 PM AKDT
Civil Twilight 6:48 AM AKDT 10:25 PM AKDT
Nautical Twilight 5:31 AM AKDT 11:41 PM AKDT
Astronomical Twilight 3:11 AM AKDT 1:46 AM AKDT
Moon 4:17 PM AKDT (9/10) 9:45 PM AKDT (9/10)
Length of Visible Light 15h 37m
Length of Day
13h 44m
Waxing Crescent, 30% of the Moon is Illuminated
Sep 10
Waxing Crescent
Sep 12
First Quarter
Sep 19
Full
Sep 26
Last Quarter
Oct 4
New

Hourly Weather History & Observations

Time (AKDT) Temp. Windchill Dew Point Humidity Pressure Visibility Wind Dir Wind Speed Gust Speed Precip Events Conditions
12:01 AM 46.0 °F 43.9 °F 37.9 °F 73% 29.81 in 10.0 mi NNW 4.6 mph - N/A   Overcast
1:01 AM 48.0 °F - 39.9 °F 74% 29.81 in 10.0 mi NNW 5.8 mph - N/A   Overcast
2:01 AM 45.0 °F 41.2 °F 41.0 °F 86% 29.80 in 10.0 mi NNW 6.9 mph - N/A   Overcast
3:01 AM 45.0 °F 41.8 °F 42.1 °F 90% 29.79 in 10.0 mi North 5.8 mph - N/A   Overcast
4:01 AM 45.0 °F 41.2 °F 42.1 °F 90% 29.78 in 10.0 mi NNW 6.9 mph - N/A   Overcast
5:01 AM 45.0 °F 41.8 °F 43.0 °F 93% 29.77 in 10.0 mi NNW 5.8 mph - N/A Rain Light Rain
6:01 AM 46.0 °F 43.1 °F 44.1 °F 93% 29.76 in 10.0 mi North 5.8 mph - N/A Rain Rain
7:01 AM 45.0 °F 41.2 °F 44.1 °F 97% 29.76 in 10.0 mi NNW 6.9 mph - N/A Rain Light Rain
7:23 AM 44.6 °F 40.7 °F 44.6 °F 100% 29.63 in 10.0 mi NNW 6.9 mph - N/A Rain Light Rain
8:01 AM 46.0 °F 44.8 °F 45.0 °F 96% 29.75 in 10.0 mi North 3.5 mph - N/A Rain Light Rain
9:01 AM 48.0 °F - 46.9 °F 96% 29.74 in 10.0 mi NNE 3.5 mph - N/A Rain Light Rain
10:01 AM 48.0 °F - 46.9 °F 96% 29.73 in 10.0 mi East 6.9 mph - N/A Rain Light Rain
10:14 AM 48.2 °F - 46.4 °F 93% 29.61 in 10.0 mi East 5.8 mph - N/A Rain Light Rain
11:01 AM 48.2 °F - 46.4 °F 93% 29.61 in 10.0 mi East 5.8 mph - N/A   Overcast
12:01 PM 50.0 °F - 48.0 °F 93% 29.72 in 10.0 mi East 6.9 mph - N/A   Overcast
1:01 PM 50.0 °F - 48.0 °F 93% 29.72 in 10.0 mi East 9.2 mph - N/A   Overcast
1:18 PM 50.0 °F - 48.2 °F 94% 29.60 in 10.0 mi East 9.2 mph - N/A Rain Light Rain
2:01 PM 50.0 °F - 48.9 °F 96% 29.72 in 10.0 mi East 8.1 mph - N/A Rain Light Rain
2:44 PM 51.8 °F - 48.2 °F 88% 29.59 in 10.0 mi East 6.9 mph - N/A Rain Light Rain
3:01 PM 51.8 °F - 48.2 °F 88% 29.60 in 10.0 mi East 8.1 mph - N/A Rain Light Rain
3:35 PM 51.8 °F - 50.0 °F 94% 29.59 in 10.0 mi East 6.9 mph - N/A Rain Light Rain
3:54 PM 51.8 °F - 50.0 °F 94% 29.59 in 10.0 mi East 4.6 mph - N/A Rain Light Rain
4:01 PM 51.1 °F - 50.0 °F 96% 29.71 in 10.0 mi East 5.8 mph - N/A Rain Light Rain
4:22 PM 51.8 °F - 51.8 °F 100% 29.59 in 10.0 mi Variable 4.6 mph - N/A Rain Light Rain
4:41 PM 51.8 °F - 50.0 °F 94% 29.59 in 9.0 mi East 4.6 mph - N/A Rain Light Rain
5:01 PM 52.0 °F - 51.1 °F 97% 29.70 in 10.0 mi East 5.8 mph - N/A   Overcast
6:01 PM 53.1 °F - 51.1 °F 93% 29.70 in 10.0 mi ESE 6.9 mph - N/A   Overcast
6:11 PM 53.6 °F - 51.8 °F 94% 29.57 in 10.0 mi East 4.6 mph - N/A   Overcast
7:01 PM 53.1 °F - 51.1 °F 93% 29.69 in 10.0 mi East 4.6 mph - N/A Rain Light Rain
8:01 PM 53.1 °F - 51.1 °F 93% 29.69 in 10.0 mi East 5.8 mph - N/A   Overcast
9:01 PM 52.0 °F - 50.0 °F 93% 29.69 in 10.0 mi ESE 6.9 mph - N/A Rain Light Rain
9:21 PM 51.8 °F - 50.0 °F 94% 29.57 in 10.0 mi ESE 5.8 mph - N/A Rain Light Rain
10:01 PM 51.8 °F - 50.0 °F 94% 29.57 in 10.0 mi East 5.8 mph - N/A Rain Light Rain
10:09 PM 51.1 °F - 50.0 °F 96% 29.69 in 10.0 mi East 6.9 mph - N/A Rain Rain
10:30 PM 51.8 °F - 51.8 °F 100% 29.56 in 9.0 mi East 5.8 mph - N/A Rain Rain
11:01 PM 51.1 °F - 50.0 °F 96% 29.69 in 10.0 mi East 8.1 mph - N/A Rain Light Rain